Weather History for KOKK - February, 2013

Change the Weather History Date:

Monday, February 18, 2013

  Actual Average (KGUS) Record (KGUS)
Temperature  
Mean Temperature 38 °F -  
Max Temperature 53 °F 36 °F 57 °F (1997)
Min Temperature 24 °F 24 °F 0 °F (2015)
Degree Days  
Heating Degree Days 26    
Moisture  
Dew Point 30 °F    
Average Humidity 66    
Maximum Humidity 93    
Minimum Humidity 51    
Precipitation  
Precipitation 0.08 in - - ()
Sea Level Pressure  
Sea Level Pressure 29.82 in    
Wind  
Wind Speed 18 mph (South)    
Max Wind Speed 33 mph    
Max Gust Speed 44 mph    
Visibility 10 miles    
Events      
Averages and records for this station are not official NWS values.
T = Trace of Precipitation, MM = Missing Value Source: NWS Daily Summary

Daily Weather History Graph

Daily Weather History Graph

Search for Another Location

Airport or City:

Trip Planner

Search our weather history database for the weather conditions in past years. The results will help you decide how hot, cold, wet, or windy it might be!

Date:

Astronomy

Feb. 18, 2013 Rise Set
Actual Time 6:33 AM CST 5:23 PM CST
Civil Twilight 6:05 AM CST 5:51 PM CST
Nautical Twilight 5:33 AM CST 6:22 PM CST
Astronomical Twilight 5:02 AM CST 6:54 PM CST
Moon 11:08 AM CST (2/18) 1:13 AM CST (2/18)
Length of Visible Light 11h 45m
Length of Day
10h 49m
First Quarter, 58% of the Moon is Illuminated
Feb 18
First Quarter
Feb 25
Full
Mar 4
Last Quarter
Mar 11
New
Mar 19
First Quarter

Hourly Weather History & Observations

Time (CST) Temp. Windchill Dew Point Humidity Pressure Visibility Wind Dir Wind Speed Gust Speed Precip Events Conditions
12:15 AM 24.8 °F 13.4 °F 15.8 °F 69% 30.11 in 10.0 mi SSE 12.7 mph - N/A   Clear
12:35 AM 26.6 °F 15.7 °F 15.8 °F 64% 30.11 in 10.0 mi SSE 12.7 mph - N/A   Clear
12:55 AM 26.6 °F 15.2 °F 15.8 °F 64% 30.10 in 10.0 mi SSE 13.8 mph - N/A   Scattered Clouds
1:15 AM 26.6 °F 15.2 °F 15.8 °F 64% 30.09 in 10.0 mi SSE 13.8 mph - N/A   Partly Cloudy
1:35 AM 26.6 °F 15.2 °F 15.8 °F 64% 30.08 in 10.0 mi SSE 13.8 mph - N/A   Clear
1:55 AM 26.6 °F 15.2 °F 15.8 °F 64% 30.08 in 10.0 mi SSE 13.8 mph - N/A   Clear
2:15 AM 26.6 °F 15.2 °F 15.8 °F 64% 30.07 in 10.0 mi SSE 13.8 mph - N/A   Clear
2:35 AM 26.6 °F 14.7 °F 15.8 °F 64% 30.06 in 10.0 mi SSE 15.0 mph - N/A   Clear
2:55 AM 26.6 °F 14.7 °F 15.8 °F 64% 30.04 in 10.0 mi SSE 15.0 mph - N/A   Clear
3:15 AM 26.6 °F 14.7 °F 15.8 °F 64% 30.03 in 10.0 mi SSE 15.0 mph - N/A   Clear
3:35 AM 26.6 °F 14.3 °F 15.8 °F 64% 30.02 in 10.0 mi SSE 16.1 mph - N/A   Clear
3:55 AM 28.4 °F 17.5 °F 15.8 °F 59% 30.02 in 10.0 mi SSE 13.8 mph - N/A   Clear
4:15 AM 28.4 °F 16.2 °F 15.8 °F 59% 30.01 in 10.0 mi SSE 17.3 mph - N/A   Clear
4:35 AM 28.4 °F 16.2 °F 15.8 °F 59% 29.99 in 10.0 mi SSE 17.3 mph - N/A   Clear
4:55 AM 28.4 °F 15.8 °F 17.6 °F 64% 29.99 in 10.0 mi SSE 18.4 mph 24.2 mph N/A   Clear
5:15 AM 28.4 °F 15.4 °F 17.6 °F 64% 29.97 in 10.0 mi SSE 19.6 mph 23.0 mph N/A   Clear
5:35 AM 28.4 °F 15.8 °F 17.6 °F 64% 29.97 in 10.0 mi South 18.4 mph - N/A   Clear
5:55 AM 28.4 °F 15.8 °F 17.6 °F 64% 29.96 in 10.0 mi South 18.4 mph 25.3 mph N/A   Clear
6:15 AM 28.4 °F 14.7 °F 17.6 °F 64% 29.95 in 10.0 mi South 21.9 mph 26.5 mph N/A   Clear
6:35 AM 28.4 °F 15.4 °F 17.6 °F 64% 29.94 in 10.0 mi South 19.6 mph - N/A   Clear
6:55 AM 30.2 °F 18.5 °F 17.6 °F 60% 29.93 in 10.0 mi South 17.3 mph - N/A   Clear
7:15 AM 30.2 °F 18.1 °F 19.4 °F 64% 29.93 in 10.0 mi South 18.4 mph - N/A   Clear
7:35 AM 32.0 °F 20.1 °F 19.4 °F 60% 29.93 in 10.0 mi South 19.6 mph 24.2 mph N/A   Clear
7:55 AM 33.8 °F 21.3 °F 21.2 °F 60% 29.92 in 10.0 mi South 24.2 mph 28.8 mph N/A   Clear
8:15 AM 35.6 °F 24.5 °F 21.2 °F 56% 29.92 in 10.0 mi South 20.7 mph 27.6 mph N/A   Clear
8:35 AM 35.6 °F 24.2 °F 23.0 °F 60% 29.92 in 10.0 mi South 21.9 mph 28.8 mph N/A   Clear
8:55 AM 37.4 °F 26.6 °F 24.8 °F 60% 29.91 in 10.0 mi South 21.9 mph 28.8 mph N/A   Clear
9:15 AM 39.2 °F 29.3 °F 26.6 °F 61% 29.91 in 10.0 mi South 20.7 mph 27.6 mph N/A   Clear
9:35 AM 39.2 °F 29.8 °F 26.6 °F 61% 29.90 in 10.0 mi South 18.4 mph 24.2 mph N/A   Clear
9:55 AM 42.8 °F 34.0 °F 28.4 °F 57% 29.89 in 10.0 mi South 20.7 mph 25.3 mph N/A   Clear
10:15 AM 42.8 °F 33.5 °F 30.2 °F 61% 29.88 in 10.0 mi South 23.0 mph 29.9 mph N/A   Clear
10:35 AM 44.6 °F 36.4 °F 30.2 °F 57% 29.87 in 10.0 mi South 20.7 mph - N/A   Clear
10:55 AM 44.6 °F 36.1 °F 32.0 °F 61% 29.87 in 10.0 mi South 21.9 mph 29.9 mph N/A   Clear
11:15 AM 46.4 °F 38.7 °F 33.8 °F 62% 29.85 in 10.0 mi South 20.7 mph 29.9 mph N/A   Clear
11:35 AM 48.2 °F - 35.6 °F 62% 29.85 in 10.0 mi South 20.7 mph 28.8 mph N/A   Clear
11:55 AM 51.8 °F - 37.4 °F 58% 29.84 in 10.0 mi SSW 20.7 mph 27.6 mph N/A   Clear
12:15 PM 51.8 °F - 37.4 °F 58% 29.83 in 10.0 mi SSW 24.2 mph 29.9 mph N/A   Clear
12:35 PM 51.8 °F - 37.4 °F 58% 29.82 in 10.0 mi SSW 17.3 mph 27.6 mph N/A   Clear
12:55 PM 51.8 °F - 39.2 °F 62% 29.81 in 10.0 mi SSW 23.0 mph 31.1 mph N/A   Clear
1:15 PM 53.6 °F - 39.2 °F 58% 29.79 in 10.0 mi South 17.3 mph 25.3 mph N/A   Scattered Clouds
1:35 PM 53.6 °F - 39.2 °F 58% 29.78 in 10.0 mi South 16.1 mph 27.6 mph N/A   Mostly Cloudy
1:55 PM 53.6 °F - 39.2 °F 58% 29.78 in 10.0 mi South 15.0 mph 21.9 mph N/A   Overcast
2:15 PM 51.8 °F - 39.2 °F 62% 29.77 in 10.0 mi SSW 19.6 mph 26.5 mph N/A   Overcast
2:35 PM 53.6 °F - 41.0 °F 62% 29.76 in 10.0 mi SSW 19.6 mph 29.9 mph N/A   Overcast
2:55 PM 53.6 °F - 41.0 °F 62% 29.74 in 10.0 mi SSW 18.4 mph 26.5 mph N/A   Overcast
3:15 PM 53.6 °F - 41.0 °F 62% 29.73 in 10.0 mi SSW 18.4 mph 24.2 mph N/A   Overcast
3:35 PM 53.6 °F - 41.0 °F 62% 29.72 in 10.0 mi SSW 15.0 mph - N/A   Overcast
3:55 PM 53.6 °F - 39.2 °F 58% 29.72 in 10.0 mi SSW 18.4 mph 25.3 mph N/A   Overcast
4:15 PM 51.8 °F - 39.2 °F 62% 29.72 in 10.0 mi SSW 16.1 mph 21.9 mph N/A   Overcast
4:35 PM 51.8 °F - 37.4 °F 58% 29.72 in 10.0 mi SW 19.6 mph 27.6 mph N/A   Overcast
4:55 PM 53.6 °F - 35.6 °F 51% 29.71 in 10.0 mi SW 20.7 mph 32.2 mph N/A   Overcast
5:15 PM 51.8 °F - 35.6 °F 54% 29.73 in 10.0 mi SW 33.4 mph 43.7 mph N/A   Overcast
5:35 PM 48.2 °F - 37.4 °F 66% 29.73 in 10.0 mi SW 24.2 mph 36.8 mph 0.01 in   Overcast
5:55 PM 48.2 °F - 37.4 °F 66% 29.72 in 10.0 mi SSW 25.3 mph 39.1 mph 0.01 in   Mostly Cloudy
6:15 PM 46.4 °F 39.2 °F 39.2 °F 76% 29.70 in 10.0 mi SSW 18.4 mph 27.6 mph N/A   Mostly Cloudy
6:35 PM 46.4 °F 39.0 °F 39.2 °F 76% 29.68 in 10.0 mi South 19.6 mph 25.3 mph N/A   Overcast
6:55 PM 46.4 °F 38.3 °F 37.4 °F 71% 29.66 in 10.0 mi South 23.0 mph 27.6 mph N/A   Mostly Cloudy
7:15 PM 46.4 °F 38.7 °F 37.4 °F 71% 29.65 in 10.0 mi South 20.7 mph 27.6 mph N/A   Mostly Cloudy
7:35 PM 46.4 °F 38.7 °F 37.4 °F 71% 29.64 in 10.0 mi South 20.7 mph 26.5 mph N/A   Overcast
7:55 PM 44.6 °F 37.4 °F 39.2 °F 81% 29.63 in 10.0 mi South 16.1 mph - 0.01 in   Overcast
8:15 PM 46.4 °F 37.5 °F 39.2 °F 76% 29.64 in 10.0 mi SSW 27.6 mph 34.5 mph N/A   Overcast
8:35 PM 44.6 °F 36.1 °F 39.2 °F 81% 29.62 in 10.0 mi South 21.9 mph 31.1 mph 0.03 in   Overcast
8:55 PM 44.6 °F 35.7 °F 39.2 °F 81% 29.60 in 10.0 mi South 24.2 mph 33.4 mph 0.04 in   Overcast
9:15 PM 44.6 °F 35.3 °F 39.2 °F 81% 29.60 in 10.0 mi South 26.5 mph 36.8 mph N/A   Overcast
9:35 PM 44.6 °F 34.7 °F 39.2 °F 81% 29.59 in 10.0 mi South 29.9 mph 36.8 mph N/A   Mostly Cloudy
9:55 PM 44.6 °F 35.1 °F 39.2 °F 81% 29.58 in 10.0 mi South 27.6 mph 38.0 mph N/A   Overcast
10:15 PM 44.6 °F 35.5 °F 41.0 °F 87% 29.57 in 10.0 mi South 25.3 mph 38.0 mph N/A   Overcast
10:35 PM 44.6 °F 34.9 °F 41.0 °F 87% 29.56 in 10.0 mi South 28.8 mph 41.4 mph 0.01 in   Overcast
10:55 PM 44.6 °F 35.7 °F 41.0 °F 87% 29.54 in 10.0 mi South 24.2 mph 35.7 mph 0.01 in   Overcast
11:15 PM 44.6 °F 35.3 °F 41.0 °F 87% 29.54 in 7.0 mi South 26.5 mph 35.7 mph N/A   Overcast
11:35 PM 44.6 °F 35.3 °F 41.0 °F 87% 29.53 in 9.0 mi South 26.5 mph 33.4 mph N/A   Overcast
11:55 PM 44.6 °F 35.7 °F 42.8 °F 93% 29.52 in 8.0 mi SSW 24.2 mph 32.2 mph 0.01 in   Overcast